"datetime","temp","dp","rain_mm","uv","solar","mb","wind_mph","gust_mph","windchill","rh"
"2015-12-05 00:00:00",10.8,8.5,0.0,0.0,0,1024.5,3,5,"",86
"2015-12-05 00:01:00",10.8,8.5,0.0,0.0,0,1024.4,3,10,"",86
"2015-12-05 00:02:00",10.8,8.5,0.0,0.0,0,1024.4,6,7,"",86
"2015-12-05 00:03:00",10.8,8.5,0.0,0.0,0,1024.5,5,8,"",86
"2015-12-05 00:04:00",10.8,8.5,0.0,0.0,0,1024.4,5,8,"",86
"2015-12-05 00:05:00",10.8,8.5,0.0,0.0,0,1024.5,2,3,"",86
"2015-12-05 00:06:00",10.8,8.5,0.0,0.0,0,1024.5,1,3,"",86
"2015-12-05 00:07:00",10.8,8.5,0.0,0.0,0,1024.4,2,7,"",86
"2015-12-05 00:08:00",10.8,8.5,0.0,0.0,0,1024.5,3,7,"",86
"2015-12-05 00:09:00",10.8,8.5,0.0,0.0,0,1024.5,3,8,"",86
"2015-12-05 00:10:00",10.8,8.5,0.0,0.0,0,1024.5,5,9,"",86
"2015-12-05 00:11:00",10.8,8.5,0.0,0.0,0,1024.6,5,10,"",86
"2015-12-05 00:12:00",10.8,8.5,0.0,0.0,0,1024.5,7,12,"",86
"2015-12-05 00:13:00",10.8,8.5,0.0,0.0,0,1024.6,5,3,"",86
"2015-12-05 00:14:00",10.8,8.5,0.0,0.0,0,1024.7,2,10,"",86
"2015-12-05 00:15:00",10.8,8.5,0.0,0.0,0,1024.7,7,22,"",86
"2015-12-05 00:16:00",10.8,8.5,0.0,0.0,0,1024.6,7,12,"",86
"2015-12-05 00:17:00",10.8,8.5,0.0,0.0,0,1024.7,6,12,"",86
"2015-12-05 00:18:00",10.8,8.5,0.0,0.0,0,1024.6,7,12,"",86
"2015-12-05 00:19:00",10.8,8.5,0.0,0.0,0,1024.6,8,14,"",86
"2015-12-05 00:20:00",10.8,8.6,0.0,0.0,0,1024.5,6,14,"",86
"2015-12-05 00:21:00",10.8,8.6,0.0,0.0,0,1024.6,6,14,"",86
"2015-12-05 00:22:00",10.8,8.6,0.0,0.0,0,1024.6,3,3,"",86
"2015-12-05 00:23:00",10.8,8.6,0.0,0.0,0,1024.6,3,12,"",86
"2015-12-05 00:24:00",10.8,8.6,0.0,0.0,0,1024.7,3,3,"",86
"2015-12-05 00:25:00",10.8,8.6,0.0,0.0,0,1024.7,2,3,"",86
"2015-12-05 00:26:00",10.8,8.6,0.0,0.0,0,1024.6,3,9,"",86
"2015-12-05 00:27:00",10.8,8.6,0.0,0.0,0,1024.6,6,10,"",86
"2015-12-05 00:28:00",10.8,8.4,0.0,0.0,0,1024.6,6,9,"",85
"2015-12-05 00:29:00",10.8,8.4,0.0,0.0,0,1024.6,6,12,"",85
"2015-12-05 00:30:00",10.8,8.4,0.0,0.0,0,1024.7,8,20,"",85
"2015-12-05 00:31:00",10.8,8.4,0.0,0.0,0,1024.6,7,12,"",85
"2015-12-05 00:32:00",10.9,8.4,0.0,0.0,0,1024.7,5,6,"",85
"2015-12-05 00:33:00",10.9,8.5,0.0,0.0,0,1024.7,5,12,"",85
"2015-12-05 00:34:00",10.9,8.5,0.0,0.0,0,1024.7,5,7,"",85
"2015-12-05 00:35:00",10.9,8.5,0.0,0.0,0,1024.7,3,8,"",85
"2015-12-05 00:36:00",10.9,8.5,0.0,0.0,0,1024.7,5,10,"",85
"2015-12-05 00:37:00",10.9,8.5,0.0,0.0,0,1024.7,7,21,"",85
"2015-12-05 00:38:00",10.9,8.5,0.0,0.0,0,1024.6,8,17,"",85
"2015-12-05 00:39:00",10.9,8.5,0.0,0.0,0,1024.6,5,8,"",85
"2015-12-05 00:40:00",10.9,8.5,0.0,0.0,0,1024.6,6,20,"",85
"2015-12-05 00:41:00",10.9,8.5,0.0,0.0,0,1024.5,6,6,"",85
"2015-12-05 00:42:00",10.9,8.5,0.0,0.0,0,1024.5,3,6,"",85
"2015-12-05 00:43:00",10.9,8.5,0.0,0.0,0,1024.5,3,5,"",85
"2015-12-05 00:44:00",10.9,8.5,0.0,0.0,0,1024.5,3,8,"",85
"2015-12-05 00:45:00",10.9,8.5,0.0,0.0,0,1024.4,3,7,"",85
"2015-12-05 00:46:00",10.9,8.5,0.0,0.0,0,1024.4,5,8,"",85
"2015-12-05 00:47:00",10.9,8.5,0.0,0.0,0,1024.4,3,3,"",85
"2015-12-05 00:48:00",10.9,8.5,0.0,0.0,0,1024.3,3,10,"",85
"2015-12-05 00:49:00",10.9,8.5,0.0,0.0,0,1024.4,3,3,"",85
"2015-12-05 00:50:00",10.9,8.5,0.0,0.0,0,1024.3,5,12,"",85
"2015-12-05 00:51:00",10.9,8.5,0.0,0.0,0,1024.3,6,8,"",85
"2015-12-05 00:52:00",10.9,8.5,0.0,0.0,0,1024.2,5,8,"",85
"2015-12-05 00:53:00",10.9,8.5,0.0,0.0,0,1024.2,5,12,"",85
"2015-12-05 00:54:00",10.9,8.5,0.0,0.0,0,1024.2,7,12,"",85
"2015-12-05 00:55:00",10.9,8.5,0.0,0.0,0,1024.0,6,16,"",85
"2015-12-05 00:56:00",10.9,8.3,0.0,0.0,0,1024.0,5,8,"",84
"2015-12-05 00:57:00",10.9,8.3,0.0,0.0,0,1024.0,6,10,"",84
"2015-12-05 00:58:00",10.9,8.3,0.0,0.0,0,1024.0,8,21,"",84
"2015-12-05 00:59:00",10.9,8.3,0.0,0.0,0,1024.0,6,9,"",84
"2015-12-05 01:00:00",10.9,8.3,0.0,0.0,0,1023.9,5,9,"",84
"2015-12-05 01:01:00",10.9,8.3,0.0,0.0,0,1024.0,6,12,"",84
"2015-12-05 01:02:00",10.9,8.3,0.0,0.0,0,1023.9,7,15,"",84
"2015-12-05 01:03:00",10.9,8.3,0.0,0.0,0,1023.9,6,10,"",84
"2015-12-05 01:04:00",10.9,8.3,0.0,0.0,0,1023.9,3,6,"",84
"2015-12-05 01:05:00",10.8,8.2,0.0,0.0,0,1023.9,5,9,"",84
"2015-12-05 01:06:00",10.8,8.2,0.0,0.0,0,1023.8,6,8,"",84
"2015-12-05 01:07:00",10.8,8.2,0.0,0.0,0,1023.8,7,14,"",84
"2015-12-05 01:08:00",10.8,8.2,0.0,0.0,0,1023.7,3,7,"",84
"2015-12-05 01:09:00",10.8,8.1,0.0,0.0,0,1023.8,5,8,"",83
"2015-12-05 01:10:00",10.8,8.1,0.0,0.0,0,1023.8,6,9,"",83
"2015-12-05 01:11:00",10.8,8.1,0.0,0.0,0,1023.7,5,9,"",83
"2015-12-05 01:12:00",10.8,8.1,0.0,0.0,0,1023.8,5,15,"",83
"2015-12-05 01:13:00",10.8,8.1,0.0,0.0,0,1023.7,5,14,"",83
"2015-12-05 01:14:00",10.8,8.1,0.0,0.0,0,1023.8,6,6,"",83
"2015-12-05 01:15:00",10.8,8.0,0.0,0.0,0,1023.7,3,5,"",83
"2015-12-05 01:16:00",10.8,8.0,0.0,0.0,0,1023.6,5,10,"",83
"2015-12-05 01:17:00",10.8,8.0,0.0,0.0,0,1023.6,6,16,"",83
"2015-12-05 01:18:00",10.8,8.0,0.0,0.0,0,1023.5,6,12,"",83
"2015-12-05 01:19:00",10.8,8.0,0.0,0.0,0,1023.6,5,20,"",83
"2015-12-05 01:20:00",10.8,8.0,0.0,0.0,0,1023.4,8,14,"",83
"2015-12-05 01:21:00",10.8,8.0,0.0,0.0,0,1023.5,8,12,"",83
"2015-12-05 01:22:00",10.8,8.2,0.0,0.0,0,1023.4,7,14,"",84
"2015-12-05 01:23:00",10.8,8.2,0.0,0.0,0,1023.6,5,7,"",84
"2015-12-05 01:24:00",10.8,8.1,0.0,0.0,0,1023.5,6,12,"",83
"2015-12-05 01:25:00",10.8,8.2,0.0,0.0,0,1023.5,8,15,"",84
"2015-12-05 01:26:00",10.8,8.2,0.0,0.0,0,1023.5,5,7,"",84
"2015-12-05 01:27:00",10.8,8.2,0.0,0.0,0,1023.5,3,7,"",84
"2015-12-05 01:28:00",10.8,8.2,0.0,0.0,0,1023.4,5,8,"",84
"2015-12-05 01:29:00",10.8,8.2,0.0,0.0,0,1023.5,6,21,"",84
"2015-12-05 01:30:00",10.8,8.2,0.0,0.0,0,1023.3,8,10,"",84
"2015-12-05 01:31:00",10.8,8.2,0.0,0.0,0,1023.4,5,5,"",84
"2015-12-05 01:32:00",10.8,8.2,0.0,0.0,0,1023.3,2,8,"",84
"2015-12-05 01:33:00",10.8,8.2,0.0,0.0,0,1023.5,3,9,"",84
"2015-12-05 01:34:00",10.8,8.2,0.0,0.0,0,1023.5,6,12,"",84
"2015-12-05 01:35:00",10.8,8.2,0.0,0.0,0,1023.3,5,7,"",84
"2015-12-05 01:36:00",10.8,8.2,0.0,0.0,0,1023.3,5,8,"",84
"2015-12-05 01:37:00",10.8,8.2,0.0,0.0,0,1023.3,5,12,"",84
"2015-12-05 01:38:00",10.8,8.2,0.0,0.0,0,1023.4,7,10,"",84
"2015-12-05 01:39:00",10.8,8.2,0.0,0.0,0,1023.4,3,12,"",84
"2015-12-05 01:40:00",10.8,8.2,0.0,0.0,0,1023.3,5,7,"",84
"2015-12-05 01:41:00",10.8,8.2,0.0,0.0,0,1023.4,2,6,"",84
"2015-12-05 01:42:00",10.8,8.2,0.0,0.0,0,1023.4,3,8,"",84
"2015-12-05 01:43:00",10.8,8.2,0.0,0.0,0,1023.5,6,17,"",84
"2015-12-05 01:44:00",10.8,8.2,0.0,0.0,0,1023.5,6,8,"",84
"2015-12-05 01:45:00",10.8,8.2,0.0,0.0,0,1023.4,5,9,"",84
"2015-12-05 01:46:00",10.8,8.2,0.0,0.0,0,1023.4,5,10,"",84
"2015-12-05 01:47:00",10.7,8.1,0.0,0.0,0,1023.3,6,12,"",84
"2015-12-05 01:48:00",10.7,8.0,0.0,0.0,0,1023.4,7,9,"",83
"2015-12-05 01:49:00",10.7,8.0,0.0,0.0,0,1023.5,5,12,"",83
"2015-12-05 01:50:00",10.7,8.0,0.0,0.0,0,1023.3,7,10,"",83
"2015-12-05 01:51:00",10.7,8.0,0.0,0.0,0,1023.3,3,10,"",83
"2015-12-05 01:52:00",10.7,7.9,0.0,0.0,0,1023.4,6,9,"",83
"2015-12-05 01:53:00",10.7,7.9,0.0,0.0,0,1023.4,6,10,"",83
"2015-12-05 01:54:00",10.7,7.9,0.0,0.0,0,1023.3,3,7,"",83
"2015-12-05 01:55:00",10.7,7.9,0.0,0.0,0,1023.4,5,16,"",83
"2015-12-05 01:56:00",10.7,7.9,0.0,0.0,0,1023.3,5,5,"",83
"2015-12-05 01:57:00",10.7,7.9,0.0,0.0,0,1023.3,3,5,"",83
"2015-12-05 01:58:00",10.7,7.9,0.0,0.0,0,1023.3,3,12,"",83
"2015-12-05 01:59:00",10.7,7.9,0.0,0.0,0,1023.3,3,6,"",83
"2015-12-05 02:00:00",10.7,7.9,0.0,0.0,0,1023.5,3,5,"",83
"2015-12-05 02:01:00",10.7,7.9,0.0,0.0,0,1023.5,3,12,"",83
"2015-12-05 02:02:00",10.7,7.9,0.0,0.0,0,1023.6,5,12,"",83
"2015-12-05 02:03:00",10.7,7.9,0.0,0.0,0,1023.6,5,7,"",83
"2015-12-05 02:04:00",10.7,7.9,0.0,0.0,0,1023.6,5,9,"",83
"2015-12-05 02:05:00",10.7,7.9,0.0,0.0,0,1023.6,5,8,"",83
"2015-12-05 02:06:00",10.7,7.9,0.0,0.0,0,1023.6,3,9,"",83
"2015-12-05 02:07:00",10.7,7.9,0.0,0.0,0,1023.6,5,14,"",83
"2015-12-05 02:08:00",10.7,7.9,0.0,0.0,0,1023.7,6,17,"",83
"2015-12-05 02:09:00",10.7,7.9,0.0,0.0,0,1023.7,5,7,"",83
"2015-12-05 02:10:00",10.7,7.9,0.0,0.0,0,1023.7,3,8,"",83
"2015-12-05 02:11:00",10.7,7.9,0.0,0.0,0,1023.8,3,6,"",83
"2015-12-05 02:12:00",10.7,7.9,0.0,0.0,0,1023.8,5,12,"",83
"2015-12-05 02:13:00",10.7,7.9,0.0,0.0,0,1023.8,6,10,"",83
"2015-12-05 02:14:00",10.7,7.9,0.0,0.0,0,1023.7,2,3,"",83
"2015-12-05 02:15:00",10.7,7.9,0.0,0.0,0,1023.7,2,6,"",83
"2015-12-05 02:16:00",10.7,7.9,0.0,0.0,0,1023.8,3,8,"",83
"2015-12-05 02:17:00",10.7,7.9,0.0,0.0,0,1023.8,2,5,"",83
"2015-12-05 02:18:00",10.6,7.9,0.0,0.0,0,1023.7,3,5,"",83
"2015-12-05 02:19:00",10.7,7.9,0.0,0.0,0,1023.6,3,5,"",83
"2015-12-05 02:20:00",10.7,7.9,0.0,0.0,0,1023.6,2,3,"",83
"2015-12-05 02:21:00",10.7,7.9,0.0,0.0,0,1023.6,2,20,"",83
"2015-12-05 02:22:00",10.7,7.9,0.0,0.0,0,1023.7,6,12,"",83
"2015-12-05 02:23:00",10.7,7.9,0.0,0.0,0,1023.7,6,14,"",83
"2015-12-05 02:24:00",10.7,7.9,0.0,0.0,0,1023.6,3,3,"",83
"2015-12-05 02:25:00",10.7,7.9,0.0,0.0,0,1023.6,3,9,"",83
"2015-12-05 02:26:00",10.7,8.1,0.0,0.0,0,1023.7,5,9,"",84
"2015-12-05 02:27:00",10.7,8.1,0.0,0.0,0,1023.7,5,9,"",84
"2015-12-05 02:28:00",10.7,8.1,0.0,0.0,0,1023.7,3,12,"",84
"2015-12-05 02:29:00",10.7,8.1,0.0,0.0,0,1023.6,5,8,"",84
"2015-12-05 02:30:00",10.7,8.1,0.0,0.0,0,1023.7,2,8,"",84
"2015-12-05 02:31:00",10.7,8.1,0.0,0.0,0,1023.6,3,5,"",84
"2015-12-05 02:32:00",10.7,8.1,0.0,0.0,0,1023.6,2,3,"",84
"2015-12-05 02:33:00",10.7,8.1,0.0,0.0,0,1023.5,2,3,"",84
"2015-12-05 02:34:00",10.7,8.1,0.0,0.0,0,1023.5,3,8,"",84
"2015-12-05 02:35:00",10.7,8.1,0.0,0.0,0,1023.5,5,7,"",84
"2015-12-05 02:36:00",10.7,8.3,0.0,0.0,0,1023.5,2,3,"",85
"2015-12-05 02:37:00",10.7,8.3,0.0,0.0,0,1023.4,2,12,"",85
"2015-12-05 02:38:00",10.7,8.3,0.0,0.0,0,1023.4,5,9,"",85
"2015-12-05 02:39:00",10.7,8.3,0.0,0.0,0,1023.3,2,7,"",85
"2015-12-05 02:40:00",10.7,8.3,0.0,0.0,0,1023.4,3,8,"",85
"2015-12-05 02:41:00",10.8,8.3,0.0,0.0,0,1023.3,2,3,"",85
"2015-12-05 02:42:00",10.7,8.3,0.0,0.0,0,1023.4,2,3,"",85
"2015-12-05 02:43:00",10.7,8.3,0.0,0.0,0,1023.5,2,5,"",85
"2015-12-05 02:44:00",10.7,8.3,0.0,0.0,0,1023.4,2,7,"",85
"2015-12-05 02:45:00",10.7,8.3,0.0,0.0,0,1023.3,5,8,"",85
"2015-12-05 02:46:00",10.7,8.3,0.0,0.0,0,1023.3,3,6,"",85
"2015-12-05 02:47:00",10.7,8.3,0.0,0.0,0,1023.3,2,3,"",85
"2015-12-05 02:48:00",10.7,8.3,0.0,0.0,0,1023.3,2,8,"",85
"2015-12-05 02:49:00",10.7,8.3,0.0,0.0,0,1023.3,2,3,"",85
"2015-12-05 02:50:00",10.7,8.3,0.0,0.0,0,1023.4,2,6,"",85
"2015-12-05 02:51:00",10.7,8.3,0.0,0.0,0,1023.4,5,8,"",85
"2015-12-05 02:52:00",10.7,8.3,0.0,0.0,0,1023.3,3,7,"",85
"2015-12-05 02:53:00",10.7,8.2,0.0,0.0,0,1023.4,3,8,"",85
"2015-12-05 02:54:00",10.7,8.2,0.0,0.0,0,1023.4,3,12,"",85
"2015-12-05 02:55:00",10.7,8.2,0.0,0.0,0,1023.4,5,5,"",85
"2015-12-05 02:56:00",10.6,8.2,0.0,0.0,0,1023.4,3,8,"",85
"2015-12-05 02:57:00",10.6,8.2,0.0,0.0,0,1023.4,3,9,"",85
"2015-12-05 02:58:00",10.6,8.2,0.0,0.0,0,1023.3,3,10,"",85
"2015-12-05 02:59:00",10.6,8.2,0.0,0.0,0,1023.4,5,10,"",85
"2015-12-05 03:00:00",10.6,8.2,0.0,0.0,0,1023.3,3,3,"",85
"2015-12-05 03:01:00",10.6,8.2,0.0,0.0,0,1023.3,3,6,"",85
"2015-12-05 03:02:00",10.6,8.2,0.0,0.0,0,1023.3,3,7,"",85
"2015-12-05 03:03:00",10.6,8.2,0.0,0.0,0,1023.3,5,16,"",85
"2015-12-05 03:04:00",10.6,8.1,0.0,0.0,0,1023.2,3,8,"",85
"2015-12-05 03:05:00",10.6,8.0,0.0,0.0,0,1023.3,6,10,"",84
"2015-12-05 03:06:00",10.6,8.1,0.0,0.0,0,1023.3,5,9,"",85
"2015-12-05 03:07:00",10.6,8.0,0.0,0.0,0,1023.3,2,6,"",84
"2015-12-05 03:08:00",10.6,8.0,0.0,0.0,0,1023.2,3,12,"",84
"2015-12-05 03:09:00",10.6,8.0,0.0,0.0,0,1023.2,6,7,"",84
"2015-12-05 03:10:00",10.5,8.0,0.0,0.0,0,1023.2,3,6,"",85
"2015-12-05 03:11:00",10.5,7.9,0.0,0.0,0,1023.2,2,5,"",84
"2015-12-05 03:12:00",10.5,8.1,0.0,0.0,0,1023.2,3,3,"",85
"2015-12-05 03:13:00",10.5,8.1,0.0,0.0,0,1023.1,2,3,"",85
"2015-12-05 03:14:00",10.5,8.1,0.0,0.0,0,1023.1,2,10,"",85
"2015-12-05 03:15:00",10.5,8.1,0.0,0.0,0,1023.1,5,10,"",85
"2015-12-05 03:16:00",10.5,8.1,0.0,0.0,0,1023.0,3,5,"",85
"2015-12-05 03:17:00",10.5,8.1,0.0,0.0,0,1023.0,2,3,"",85
"2015-12-05 03:18:00",10.5,8.1,0.0,0.0,0,1023.0,2,7,"",85
"2015-12-05 03:19:00",10.5,8.1,0.0,0.0,0,1023.0,3,6,"",85
"2015-12-05 03:20:00",10.5,8.1,0.0,0.0,0,1023.0,3,8,"",85
"2015-12-05 03:21:00",10.5,8.1,0.0,0.0,0,1022.8,5,10,"",85
"2015-12-05 03:22:00",10.5,8.1,0.0,0.0,0,1022.9,2,2,"",85
"2015-12-05 03:23:00",10.5,8.1,0.0,0.0,0,1022.8,1,7,"",85
"2015-12-05 03:24:00",10.5,8.1,0.0,0.0,0,1022.8,3,7,"",85
"2015-12-05 03:25:00",10.5,8.1,0.0,0.0,0,1022.8,2,5,"",85
"2015-12-05 03:26:00",10.5,8.1,0.0,0.0,0,1022.8,5,8,"",85
"2015-12-05 03:27:00",10.5,8.1,0.0,0.0,0,1022.7,3,7,"",85
"2015-12-05 03:28:00",10.5,8.3,0.0,0.0,0,1022.7,3,3,"",86
"2015-12-05 03:29:00",10.5,8.3,0.0,0.0,0,1022.7,5,12,"",86
"2015-12-05 03:30:00",10.5,8.3,0.0,0.0,0,1022.6,5,3,"",86
"2015-12-05 03:31:00",10.5,8.3,0.0,0.0,0,1022.7,2,12,"",86
"2015-12-05 03:32:00",10.5,8.3,0.0,0.0,0,1022.6,3,7,"",86
"2015-12-05 03:33:00",10.5,8.3,0.0,0.0,0,1022.6,5,12,"",86
"2015-12-05 03:34:00",10.5,8.3,0.0,0.0,0,1022.7,3,3,"",86
"2015-12-05 03:35:00",10.5,8.3,0.0,0.0,0,1022.7,3,10,"",86
"2015-12-05 03:36:00",10.5,8.3,0.0,0.0,0,1022.6,5,7,"",86
"2015-12-05 03:37:00",10.5,8.3,0.0,0.0,0,1022.7,5,10,"",86
"2015-12-05 03:38:00",10.5,8.3,0.0,0.0,0,1022.6,3,5,"",86
"2015-12-05 03:39:00",10.5,8.3,0.0,0.0,0,1022.5,3,7,"",86
"2015-12-05 03:40:00",10.5,8.3,0.0,0.0,0,1022.6,5,10,"",86
"2015-12-05 03:41:00",10.5,8.3,0.0,0.0,0,1022.6,5,8,"",86
"2015-12-05 03:42:00",10.5,8.3,0.0,0.0,0,1022.5,5,3,"",86
"2015-12-05 03:43:00",10.5,8.3,0.0,0.0,0,1022.4,3,9,"",86
"2015-12-05 03:44:00",10.5,8.3,0.0,0.0,0,1022.4,5,14,"",86
"2015-12-05 03:45:00",10.5,8.2,0.0,0.0,0,1022.4,6,8,"",86
"2015-12-05 03:46:00",10.5,8.2,0.0,0.0,0,1022.4,5,14,"",86
"2015-12-05 03:47:00",10.4,8.2,0.0,0.0,0,1022.3,6,10,"",86
"2015-12-05 03:48:00",10.5,8.2,0.0,0.0,0,1022.3,2,3,"",86
"2015-12-05 03:49:00",10.5,8.2,0.0,0.0,0,1022.4,2,8,"",86
"2015-12-05 03:50:00",10.4,8.2,0.0,0.0,0,1022.3,3,9,"",86
"2015-12-05 03:51:00",10.4,8.2,0.0,0.0,0,1022.3,3,5,"",86
"2015-12-05 03:52:00",10.4,8.0,0.0,0.0,0,1022.3,3,8,"",85
"2015-12-05 03:53:00",10.5,8.0,0.0,0.0,0,1022.4,5,12,"",85
"2015-12-05 03:54:00",10.5,8.1,0.0,0.0,0,1022.4,6,9,"",85
"2015-12-05 03:55:00",10.5,8.1,0.0,0.0,0,1022.4,3,3,"",85
"2015-12-05 03:56:00",10.5,8.1,0.0,0.0,0,1022.3,1,3,"",85
"2015-12-05 03:57:00",10.5,8.1,0.0,0.0,0,1022.4,2,7,"",85
"2015-12-05 03:58:00",10.5,8.1,0.0,0.0,0,1022.3,5,7,"",85
"2015-12-05 03:59:00",10.5,8.1,0.0,0.0,0,1022.3,3,5,"",85
"2015-12-05 04:00:00",10.5,8.1,0.0,0.0,0,1022.2,2,7,"",85
"2015-12-05 04:01:00",10.5,8.1,0.0,0.0,0,1022.3,3,12,"",85
"2015-12-05 04:02:00",10.5,8.1,0.0,0.0,0,1022.3,5,7,"",85
"2015-12-05 04:03:00",10.5,8.1,0.0,0.0,0,1022.4,5,14,"",85
"2015-12-05 04:04:00",10.5,8.1,0.0,0.0,0,1022.3,6,12,"",85
"2015-12-05 04:05:00",10.5,8.1,0.0,0.0,0,1022.2,5,7,"",85
"2015-12-05 04:06:00",10.5,8.1,0.0,0.0,0,1022.3,3,7,"",85
"2015-12-05 04:07:00",10.5,8.0,0.0,0.0,0,1022.3,3,7,"",85
"2015-12-05 04:08:00",10.5,8.1,0.0,0.0,0,1022.3,2,3,"",85
"2015-12-05 04:09:00",10.5,8.1,0.0,0.0,0,1022.3,3,12,"",85
"2015-12-05 04:10:00",10.5,8.1,0.0,0.0,0,1022.3,5,14,"",85
"2015-12-05 04:11:00",10.5,8.0,0.0,0.0,0,1022.2,6,14,"",85
"2015-12-05 04:12:00",10.4,8.0,0.0,0.0,0,1022.2,3,5,"",85
"2015-12-05 04:13:00",10.4,8.0,0.0,0.0,0,1022.2,3,8,"",85
"2015-12-05 04:14:00",10.4,8.0,0.0,0.0,0,1022.2,5,8,"",85
"2015-12-05 04:15:00",10.4,8.0,0.0,0.0,0,1022.2,3,6,"",85
"2015-12-05 04:16:00",10.4,8.0,0.0,0.0,0,1022.3,3,5,"",85
"2015-12-05 04:17:00",10.4,8.0,0.0,0.0,0,1022.4,3,6,"",85
"2015-12-05 04:18:00",10.4,8.0,0.0,0.0,0,1022.3,3,3,"",85
"2015-12-05 04:19:00",10.4,8.0,0.0,0.0,0,1022.3,2,3,"",85
"2015-12-05 04:20:00",10.4,8.0,0.0,0.0,0,1022.3,2,7,"",85
"2015-12-05 04:21:00",10.4,8.0,0.0,0.0,0,1022.3,5,15,"",85
"2015-12-05 04:22:00",10.4,8.0,0.0,0.0,0,1022.3,5,8,"",85
"2015-12-05 04:23:00",10.4,8.0,0.0,0.0,0,1022.3,3,3,"",85
"2015-12-05 04:24:00",10.4,8.0,0.0,0.0,0,1022.4,2,3,"",85
"2015-12-05 04:25:00",10.4,8.0,0.0,0.0,0,1022.4,2,3,"",85
"2015-12-05 04:26:00",10.4,8.0,0.0,0.0,0,1022.3,3,7,"",85
"2015-12-05 04:27:00",10.4,8.0,0.0,0.0,0,1022.4,7,17,"",85
"2015-12-05 04:28:00",10.4,8.0,0.0,0.0,0,1022.2,7,8,"",85
"2015-12-05 04:29:00",10.4,8.1,0.0,0.0,0,1022.2,5,7,"",86
"2015-12-05 04:30:00",10.4,8.2,0.0,0.0,0,1022.3,3,5,"",86
"2015-12-05 04:31:00",10.4,8.2,0.0,0.0,0,1022.2,3,5,"",86
"2015-12-05 04:32:00",10.4,8.2,0.0,0.0,0,1022.2,5,12,"",86
"2015-12-05 04:33:00",10.4,8.2,0.0,0.0,0,1022.2,5,8,"",86
"2015-12-05 04:34:00",10.4,8.2,0.0,0.0,0,1022.1,3,3,"",86
"2015-12-05 04:35:00",10.4,8.2,0.0,0.0,0,1022.1,5,10,"",86
"2015-12-05 04:36:00",10.4,8.2,0.0,0.0,0,1022.0,5,9,"",86
"2015-12-05 04:37:00",10.4,8.2,0.0,0.0,0,1022.1,3,7,"",86
"2015-12-05 04:38:00",10.4,8.2,0.0,0.0,0,1022.0,3,7,"",86
"2015-12-05 04:39:00",10.4,8.2,0.0,0.0,0,1022.0,5,20,"",86
"2015-12-05 04:40:00",10.4,8.1,0.0,0.0,0,1022.1,7,12,"",86
"2015-12-05 04:41:00",10.4,8.1,0.0,0.0,0,1022.0,6,12,"",86
"2015-12-05 04:42:00",10.4,8.2,0.0,0.0,0,1022.2,5,10,"",86
"2015-12-05 04:43:00",10.4,8.2,0.0,0.0,0,1022.0,5,10,"",86
"2015-12-05 04:44:00",10.4,8.2,0.0,0.0,0,1022.0,6,12,"",86
"2015-12-05 04:45:00",10.4,8.2,0.0,0.0,0,1021.9,6,9,"",86
"2015-12-05 04:46:00",10.4,8.2,0.0,0.0,0,1022.0,3,5,"",86
"2015-12-05 04:47:00",10.4,8.2,0.0,0.0,0,1022.0,2,3,"",86
"2015-12-05 04:48:00",10.4,8.2,0.0,0.0,0,1022.0,2,6,"",86
"2015-12-05 04:49:00",10.4,8.2,0.0,0.0,0,1022.0,2,7,"",86
"2015-12-05 04:50:00",10.4,8.2,0.0,0.0,0,1022.1,6,14,"",86
"2015-12-05 04:51:00",10.4,8.2,0.0,0.0,0,1022.1,7,12,"",86
"2015-12-05 04:52:00",10.4,8.2,0.0,0.0,0,1022.2,6,7,"",86
"2015-12-05 04:53:00",10.4,8.2,0.0,0.0,0,1022.2,2,8,"",86
"2015-12-05 04:54:00",10.4,8.2,0.0,0.0,0,1022.0,5,9,"",86
"2015-12-05 04:55:00",10.4,8.2,0.0,0.0,0,1022.0,5,10,"",86
"2015-12-05 04:56:00",10.4,8.2,0.0,0.0,0,1022.1,5,9,"",86
"2015-12-05 04:57:00",10.4,8.2,0.0,0.0,0,1022.2,6,10,"",86
"2015-12-05 04:58:00",10.4,8.2,0.0,0.0,0,1022.1,6,15,"",86
"2015-12-05 04:59:00",10.4,8.2,0.0,0.0,0,1022.0,3,5,"",86
"2015-12-05 05:00:00",10.4,8.2,0.0,0.0,0,1022.0,3,7,"",86
"2015-12-05 05:01:00",10.4,8.2,0.0,0.0,0,1022.0,5,7,"",86
"2015-12-05 05:02:00",10.4,8.2,0.0,0.0,0,1021.9,5,7,"",86
"2015-12-05 05:03:00",10.4,8.2,0.0,0.0,0,1021.9,5,8,"",86
"2015-12-05 05:04:00",10.4,8.2,0.0,0.0,0,1021.8,2,7,"",86
"2015-12-05 05:05:00",10.4,8.0,0.0,0.0,0,1021.9,3,7,"",85
"2015-12-05 05:06:00",10.4,8.0,0.0,0.0,0,1021.9,2,5,"",85
"2015-12-05 05:07:00",10.4,8.0,0.0,0.0,0,1021.8,2,9,"",85
"2015-12-05 05:08:00",10.4,8.0,0.0,0.0,0,1021.8,5,8,"",85
"2015-12-05 05:09:00",10.4,8.0,0.0,0.0,0,1021.8,3,6,"",85
"2015-12-05 05:10:00",10.4,8.0,0.0,0.0,0,1021.8,3,5,"",85
"2015-12-05 05:11:00",10.4,8.0,0.0,0.0,0,1021.8,5,10,"",85
"2015-12-05 05:12:00",10.4,8.0,0.0,0.0,0,1021.8,6,12,"",85
"2015-12-05 05:13:00",10.4,8.2,0.0,0.0,0,1021.7,5,9,"",86
"2015-12-05 05:14:00",10.4,8.2,0.0,0.0,0,1021.7,5,6,"",86
"2015-12-05 05:15:00",10.4,8.2,0.0,0.0,0,1021.7,3,12,"",86
"2015-12-05 05:16:00",10.4,8.2,0.0,0.0,0,1021.8,5,6,"",86
"2015-12-05 05:17:00",10.4,8.2,0.0,0.0,0,1021.8,2,6,"",86
"2015-12-05 05:18:00",10.4,8.2,0.0,0.0,0,1021.8,3,7,"",86
"2015-12-05 05:19:00",10.4,8.2,0.0,0.0,0,1021.9,6,12,"",86
"2015-12-05 05:20:00",10.4,8.2,0.0,0.0,0,1021.8,3,8,"",86
"2015-12-05 05:21:00",10.5,8.2,0.0,0.0,0,1021.8,2,8,"",86
"2015-12-05 05:22:00",10.5,8.2,0.0,0.0,0,1021.8,3,16,"",86
"2015-12-05 05:23:00",10.4,8.2,0.0,0.0,0,1021.6,6,16,"",86
"2015-12-05 05:24:00",10.4,8.2,0.0,0.0,0,1021.8,5,12,"",86
"2015-12-05 05:25:00",10.4,8.2,0.0,0.0,0,1021.7,5,3,"",86
"2015-12-05 05:26:00",10.4,8.2,0.0,0.0,0,1021.7,3,6,"",86
"2015-12-05 05:27:00",10.4,8.2,0.0,0.0,0,1021.7,3,3,"",86
"2015-12-05 05:28:00",10.4,8.2,0.0,0.0,0,1021.6,3,10,"",86
"2015-12-05 05:29:00",10.4,8.2,0.0,0.0,0,1021.6,3,3,"",86
"2015-12-05 05:30:00",10.4,8.2,0.0,0.0,0,1021.8,2,7,"",86
"2015-12-05 05:31:00",10.4,8.2,0.0,0.0,0,1021.7,5,7,"",86
"2015-12-05 05:32:00",10.4,8.2,0.0,0.0,0,1021.8,5,9,"",86
"2015-12-05 05:33:00",10.4,8.2,0.0,0.0,0,1021.7,3,5,"",86
"2015-12-05 05:34:00",10.4,8.2,0.0,0.0,0,1021.8,5,10,"",86
"2015-12-05 05:35:00",10.4,8.2,0.0,0.0,0,1021.8,5,7,"",86
"2015-12-05 05:36:00",10.4,8.2,0.0,0.0,0,1021.8,3,8,"",86
"2015-12-05 05:37:00",10.4,8.2,0.0,0.0,0,1021.7,5,12,"",86
"2015-12-05 05:38:00",10.4,8.2,0.0,0.0,0,1021.8,5,7,"",86
"2015-12-05 05:39:00",10.4,8.2,0.0,0.0,0,1021.7,3,12,"",86
"2015-12-05 05:40:00",10.4,8.2,0.0,0.0,0,1021.7,5,8,"",86
"2015-12-05 05:41:00",10.4,8.2,0.0,0.0,0,1021.7,5,6,"",86
"2015-12-05 05:42:00",10.4,8.2,0.0,0.0,0,1021.7,5,5,"",86
"2015-12-05 05:43:00",10.4,8.2,0.0,0.0,0,1021.7,3,7,"",86
"2015-12-05 05:44:00",10.4,8.2,0.0,0.0,0,1021.6,5,7,"",86
"2015-12-05 05:45:00",10.4,8.2,0.0,0.0,0,1021.6,3,14,"",86
"2015-12-05 05:46:00",10.4,8.2,0.0,0.0,0,1021.6,8,14,"",86
"2015-12-05 05:47:00",10.4,8.2,0.0,0.0,0,1021.6,7,12,"",86
"2015-12-05 05:48:00",10.4,8.2,0.0,0.0,0,1021.6,5,5,"",86
"2015-12-05 05:49:00",10.4,8.2,0.0,0.0,0,1021.7,5,20,"",86
"2015-12-05 05:50:00",10.4,8.2,0.0,0.0,0,1021.7,6,12,"",86
"2015-12-05 05:51:00",10.4,8.2,0.0,0.0,0,1021.7,6,15,"",86
"2015-12-05 05:52:00",10.4,8.2,0.0,0.0,0,1021.7,6,12,"",86
"2015-12-05 05:53:00",10.4,8.2,0.0,0.0,0,1021.7,6,16,"",86
"2015-12-05 05:54:00",10.4,8.2,0.0,0.0,0,1021.7,6,6,"",86
"2015-12-05 05:55:00",10.4,8.2,0.0,0.0,0,1021.6,5,9,"",86
"2015-12-05 05:56:00",10.4,8.2,0.0,0.0,0,1021.7,7,12,"",86
"2015-12-05 05:57:00",10.4,8.2,0.0,0.0,0,1021.7,6,9,"",86
"2015-12-05 05:58:00",10.4,8.2,0.0,0.0,0,1021.7,5,9,"",86
"2015-12-05 05:59:00",10.4,8.2,0.0,0.0,0,1021.7,6,20,"",86
"2015-12-05 06:00:00",10.4,8.2,0.0,0.0,0,1021.7,5,9,"",86
"2015-12-05 06:01:00",10.4,8.2,0.0,0.0,0,1021.8,5,10,"",86
"2015-12-05 06:02:00",10.4,8.2,0.0,0.0,0,1021.8,3,5,"",86
"2015-12-05 06:03:00",10.4,8.2,0.0,0.0,0,1021.8,3,5,"",86
"2015-12-05 06:04:00",10.4,8.2,0.0,0.0,0,1021.8,3,6,"",86
"2015-12-05 06:05:00",10.4,8.2,0.0,0.0,0,1021.7,3,6,"",86
"2015-12-05 06:06:00",10.4,8.2,0.0,0.0,0,1021.7,3,8,"",86
"2015-12-05 06:07:00",10.4,8.2,0.0,0.0,0,1021.6,6,12,"",86
"2015-12-05 06:08:00",10.4,8.2,0.0,0.0,0,1021.6,7,10,"",86
"2015-12-05 06:09:00",10.4,8.2,0.0,0.0,0,1021.5,6,10,"",86
"2015-12-05 06:10:00",10.4,8.2,0.0,0.0,0,1021.6,5,5,"",86
"2015-12-05 06:11:00",10.4,8.2,0.0,0.0,0,1021.7,5,8,"",86
"2015-12-05 06:12:00",10.5,8.2,0.0,0.0,0,1021.6,6,12,"",86
"2015-12-05 06:13:00",10.4,8.2,0.0,0.0,0,1021.6,6,12,"",86
"2015-12-05 06:14:00",10.4,8.2,0.0,0.0,0,1021.6,7,9,"",86
"2015-12-05 06:15:00",10.4,8.2,0.0,0.0,0,1021.7,7,25,"",86
"2015-12-05 06:16:00",10.5,8.2,0.0,0.0,0,1021.6,8,12,"",86
"2015-12-05 06:17:00",10.5,8.3,0.0,0.0,0,1021.6,7,12,"",86
"2015-12-05 06:18:00",10.5,8.3,0.0,0.0,0,1021.7,6,7,"",86
"2015-12-05 06:19:00",10.5,8.3,0.0,0.0,0,1021.7,5,12,"",86
"2015-12-05 06:20:00",10.5,8.3,0.0,0.0,0,1021.7,6,8,"",86
"2015-12-05 06:21:00",10.5,8.3,0.0,0.0,0,1021.7,3,5,"",86
"2015-12-05 06:22:00",10.5,8.3,0.0,0.0,0,1021.6,2,7,"",86
"2015-12-05 06:23:00",10.5,8.3,0.0,0.0,0,1021.6,3,10,"",86
"2015-12-05 06:24:00",10.5,8.3,0.0,0.0,0,1021.6,6,12,"",86
"2015-12-05 06:25:00",10.5,8.3,0.0,0.0,0,1021.6,6,8,"",86
"2015-12-05 06:26:00",10.5,8.3,0.0,0.0,0,1021.6,3,9,"",86
"2015-12-05 06:27:00",10.5,8.3,0.0,0.0,0,1021.6,6,9,"",86
"2015-12-05 06:28:00",10.5,8.3,0.0,0.0,0,1021.6,5,5,"",86
"2015-12-05 06:29:00",10.5,8.3,0.0,0.0,0,1021.6,3,8,"",86
"2015-12-05 06:30:00",10.5,8.3,0.0,0.0,0,1021.5,3,6,"",86
"2015-12-05 06:31:00",10.5,8.3,0.0,0.0,0,1021.5,3,6,"",86
"2015-12-05 06:32:00",10.5,8.3,0.0,0.0,0,1021.5,3,6,"",86
"2015-12-05 06:33:00",10.5,8.3,0.0,0.0,0,1021.6,6,21,"",86
"2015-12-05 06:34:00",10.5,8.3,0.0,0.0,0,1021.4,10,16,"",86
"2015-12-05 06:35:00",10.5,8.3,0.0,0.0,0,1021.4,7,10,"",86
"2015-12-05 06:36:00",10.5,8.3,0.0,0.0,0,1021.4,5,10,"",86
"2015-12-05 06:37:00",10.5,8.3,0.0,0.0,0,1021.4,6,9,"",86
"2015-12-05 06:38:00",10.5,8.3,0.0,0.0,0,1021.5,5,10,"",86
"2015-12-05 06:39:00",10.5,8.3,0.0,0.0,0,1021.4,7,12,"",86
"2015-12-05 06:40:00",10.5,8.3,0.0,0.0,0,1021.5,7,9,"",86
"2015-12-05 06:41:00",10.6,8.3,0.0,0.0,0,1021.6,3,6,"",86
"2015-12-05 06:42:00",10.6,8.3,0.0,0.0,0,1021.6,5,12,"",86
"2015-12-05 06:43:00",10.6,8.3,0.0,0.0,0,1021.6,8,12,"",86
"2015-12-05 06:44:00",10.6,8.3,0.0,0.0,0,1021.6,3,3,"",86
"2015-12-05 06:45:00",10.6,8.3,0.0,0.0,0,1021.6,3,10,"",86
"2015-12-05 06:46:00",10.6,8.3,0.0,0.0,0,1021.5,6,10,"",86
"2015-12-05 06:47:00",10.6,8.3,0.0,0.0,0,1021.6,5,8,"",86
"2015-12-05 06:48:00",10.6,8.1,0.0,0.0,0,1021.6,3,3,"",85